Wind_Speed
21 21 21 20 20 19 18 18 18 18 18 17 17 17 17 16 16 17 17 18 20 20 21 21 22 23 25 27 28 29 30 30 29 29 28 27 26 26 25 25 24 24
22 22 22 21 21 20 19 19 19 19 19 18 17 17 17 17 17 18 18 19 20 21 21 22 23 25 27 28 29 29 28 27 26 25 24 24 23 23 23 23 24 24
23 23 23 22 22 21 20 20 20 20 19 18 18 17 17 17 18 18 19 20 21 21 22 24 26 27 28 28 28 27 25 24 22 22 22 22 23 24 25 25 26 26
24 24 23 22 22 21 21 21 20 20 19 18 18 18 18 18 18 19 19 20 21 22 24 25 27 27 27 25 24 22 21 21 21 22 23 24 25 25 26 27 27 28
24 24 23 22 22 22 21 21 20 19 18 18 18 18 18 18 18 19 19 20 21 23 24 25 25 24 22 20 19 19 20 21 22 23 24 25 25 26 27 27 28 28
23 23 23 22 22 21 21 20 20 18 18 17 17 17 17 18 18 19 19 20 22 23 23 23 21 19 18 18 18 19 21 22 23 24 25 25 26 26 27 27 28 28
20 21 22 21 21 20 19 19 18 17 17 17 17 17 17 17 17 18 19 20 21 21 20 18 17 16 17 18 19 20 21 22 23 24 25 25 26 26 27 27 27 28
18 18 19 19 18 18 17 17 16 16 16 15 15 15 15 16 16 17 18 19 19 18 16 15 15 16 17 18 20 21 22 23 23 24 25 25 25 26 27 27 28 28
16 16 16 16 16 16 15 15 15 15 14 14 14 14 14 14 15 16 16 16 15 14 13 14 15 16 17 19 20 21 22 23 23 23 24 24 25 26 26 27 28 29
16 15 15 15 14 14 14 14 14 13 13 12 12 12 12 13 13 14 13 13 12 12 13 14 15 16 18 19 20 21 22 22 22 22 23 24 25 26 27 28 29 30
14 14 14 14 14 14 14 13 13 12 11 11 10 10 11 11 11 10 10 10 10 11 13 14 15 17 18 19 20 20 21 21 21 22 23 24 25 26 27 29 30 31
14 13 13 13 13 13 12 12 11 10 10 9 9 9 8 8 7 7 8 9 10 12 13 14 16 17 18 19 20 20 20 21 21 22 23 24 26 27 29 30 31 32
13 12 12 12 12 12 11 10 10 9 8 7 7 7 6 5 5 6 7 9 10 12 13 15 16 18 19 19 20 20 20 21 22 23 24 25 27 28 30 31 32 32
12 12 12 11 11 10 10 9 8 7 6 6 5 4 3 4 5 6 8 9 10 12 13 15 17 18 19 20 20 21 21 22 23 24 25 26 28 29 30 31 32 33
12 12 11 11 10 10 9 8 6 5 4 4 3 3 3 4 5 7 8 10 11 13 15 16 17 18 19 20 21 21 22 23 23 25 26 27 28 30 31 32 33 33
12 11 11 11 11 10 8 7 5 4 3 3 3 3 3 4 6 7 9 11 13 15 16 17 18 19 20 20 20 21 22 23 24 26 27 28 28 29 30 31 32 33
12 11 11 11 10 9 8 6 5 5 5 4 3 3 3 5 6 8 10 12 14 16 17 18 19 20 20 20 21 21 22 24 25 27 27 28 29 29 29 30 31 32
12 12 11 10 9 9 8 7 7 7 6 4 3 3 4 5 7 9 11 13 14 16 17 19 19 20 20 20 21 22 23 24 26 27 27 28 29 29 30 31 32 33
13 12 12 11 10 9 9 9 8 7 5 3 2 3 5 6 8 10 12 13 15 16 17 18 19 19 20 20 21 22 23 24 25 26 26 27 29 30 31 32 33 34
14 13 13 12 11 10 10 9 8 6 4 2 2 4 6 7 9 11 12 14 15 16 17 17 18 19 19 20 21 22 23 23 24 25 26 28 29 30 31 32 34 35
15 14 13 11 10 10 11 10 7 4 3 2 3 5 7 8 10 11 13 14 15 15 16 16 17 18 19 20 21 21 22 23 24 25 26 27 29 30 31 32 33 35
15 13 11 11 12 12 11 8 5 3 2 2 4 6 7 9 11 12 13 14 14 15 16 16 16 17 18 19 20 21 22 23 24 25 26 27 29 30 31 32 33 34
14 13 12 13 13 12 9 6 4 2 2 3 5 6 8 9 11 12 13 13 14 15 15 15 16 17 18 19 20 21 22 23 24 25 26 27 28 29 31 33 33 33
15 14 14 14 13 10 7 5 3 2 2 3 5 7 8 9 10 11 12 13 14 15 15 15 16 17 18 19 20 20 21 22 24 25 26 26 28 29 31 32 33 33
16 15 15 14 12 8 6 4 3 2 3 4 5 7 8 8 9 11 12 13 14 14 15 15 16 17 18 19 20 21 22 23 24 25 26 26 27 29 30 31 32 33
17 16 15 13 10 7 6 4 3 2 3 4 5 6 7 8 9 11 12 13 13 14 15 16 17 18 18 19 20 21 22 23 24 25 25 26 27 29 30 31 32 33
Wind_Direction
260 264 267 270 272 274 276 275 274 276 279 282 285 288 289 291 293 295 298 301 302 303 304 305 306 308 310 312 313 314 314 315 316 317 318 319 320 321 322 322 323 323
260 262 263 265 267 270 272 272 271 273 276 280 283 285 287 289 292 294 297 299 301 303 304 305 307 309 312 314 315 316 316 318 319 321 323 325 327 329 330 330 330 330
261 262 263 264 266 268 270 271 271 272 275 279 281 284 286 288 291 294 296 299 302 304 305 306 309 311 313 315 316 318 320 323 326 328 330 331 332 332 332 332 331 331
261 262 263 264 265 267 269 269 269 271 274 277 279 282 285 288 291 293 297 300 303 305 306 307 310 312 314 317 319 322 325 328 331 332 333 333 332 332 332 331 330 330
259 260 261 262 263 264 265 265 266 268 271 275 277 281 285 288 291 294 298 302 304 307 308 309 312 314 317 320 324 328 330 331 332 333 333 333 332 332 330 329 329 328
257 257 258 258 258 258 259 260 262 265 269 273 277 282 285 289 293 297 301 305 307 309 310 312 315 318 322 326 330 332 332 332 333 333 332 332 331 330 330 329 329 328
257 254 253 253 252 253 255 257 261 265 269 274 278 283 288 291 296 301 305 308 309 310 312 315 319 324 328 332 333 333 333 333 332 332 332 331 331 330 330 329 329 328
258 253 250 249 249 251 255 258 262 265 270 275 281 286 291 295 300 305 308 309 310 311 313 318 324 329 333 334 334 333 333 332 332 332 332 331 331 331 330 330 330 329
257 251 248 248 249 253 257 260 263 268 272 278 284 289 294 299 304 307 309 308 309 312 317 323 329 333 335 334 333 333 332 332 332 332 332 332 332 331 332 331 331 330
255 249 247 249 251 255 259 262 266 270 275 280 285 292 297 301 305 306 306 307 311 316 323 329 333 335 335 333 332 332 331 331 330 331 331 332 332 332 333 333 332 332
251 247 248 250 253 257 260 263 268 271 277 282 287 293 298 301 303 303 305 310 317 323 329 333 334 334 333 332 331 330 329 329 330 332 333 333 334 335 335 335 334 333
249 248 249 252 254 258 261 265 270 274 278 283 289 294 296 297 299 304 311 318 324 329 332 333 333 332 331 330 330 329 329 330 332 334 335 336 337 337 337 337 336 334
249 250 252 255 258 262 266 269 272 275 278 283 287 287 288 293 303 312 318 323 328 331 332 333 332 330 330 329 329 329 330 333 335 336 338 339 340 340 339 338 337 335
251 254 257 261 265 268 270 271 270 271 275 276 276 275 283 302 313 317 321 324 328 331 331 332 331 330 329 328 329 330 333 335 337 339 341 342 342 341 340 339 337 336
254 259 264 267 270 269 266 263 258 260 262 257 257 269 289 306 313 317 322 326 329 331 331 330 329 328 328 328 330 333 335 338 340 342 343 344 343 342 341 340 338 336
257 262 266 267 266 260 252 244 241 242 237 233 241 262 287 305 314 320 326 329 331 331 330 329 328 328 329 331 333 336 338 340 342 344 345 344 343 342 341 340 338 337
255 258 260 259 254 244 233 227 225 218 211 213 228 259 291 309 318 325 330 331 332 330 329 328 329 330 332 334 337 339 341 343 344 346 345 343 342 341 340 340 339 338
249 251 251 247 239 231 230 228 214 199 194 202 229 276 303 316 324 330 331 331 330 330 329 330 330 333 335 337 340 343 344 346 346 345 344 342 342 341 341 341 341 340
243 245 242 237 233 234 238 234 215 193 188 208 249 292 311 322 328 330 330 329 330 329 330 332 333 335 338 340 343 345 346 347 346 344 344 344 343 344 344 343 343 343
241 242 241 239 238 232 221 211 199 186 189 226 276 307 321 328 329 328 329 328 329 329 331 335 336 338 341 343 344 346 346 346 345 345 346 346 346 346 345 345 345 346
244 241 236 227 216 203 193 188 185 184 205 259 306 320 327 329 326 327 328 327 328 331 334 338 340 342 343 344 345 346 346 346 346 347 348 348 348 347 347 348 349 348
238 226 211 198 189 186 186 186 186 194 235 302 322 325 327 326 326 327 327 327 330 335 338 341 343 345 346 346 347 347 347 347 348 349 350 350 350 349 349 350 351 350
219 203 190 186 185 185 187 186 187 212 283 316 321 324 325 325 325 325 326 331 335 339 342 345 346 347 349 349 349 349 348 349 350 351 352 352 351 351 351 352 352 352
203 192 185 184 184 185 187 188 201 244 294 313 317 322 324 322 325 327 332 337 340 342 345 347 349 351 352 351 351 350 350 351 352 352 353 352 352 353 355 354 353 353
194 188 184 183 184 186 190 196 219 254 293 311 315 319 321 323 329 334 339 342 344 346 348 350 353 355 354 354 353 352 353 354 354 354 353 353 354 355 357 357 354 354
188 185 184 183 185 189 196 207 227 257 292 306 313 320 325 333 338 341 345 347 349 351 352 354 356 357 357 357 355 355 356 356 355 354 353 354 356 358 359 358 357 357
Height
3155 3156 3156 3156 3156 3156 3156 3156 3156 3156 3156 3156 3156 3155 3155 3155 3155 3155 3154 3153 3153 3152 3151 3150 3149 3148 3146 3145 3143 3141 3139 3138 3136 3134 3132 3130 3128 3126 3124 3122 3121 3119
3153 3154 3154 3154 3154 3155 3155 3154 3154 3154 3154 3154 3154 3154 3154 3154 3153 3153 3152 3152 3151 3150 3149 3148 3147 3146 3144 3142 3141 3139 3137 3135 3133 3131 3130 3128 3126 3124 3122 3120 3119 3117
3151 3152 3152 3152 3152 3153 3153 3152 3152 3152 3153 3153 3153 3153 3152 3152 3152 3151 3151 3150 3149 3148 3148 3146 3145 3144 3142 3140 3139 3137 3135 3133 3131 3130 3128 3126 3124 3122 3120 3118 3117 3115
3149 3150 3150 3150 3150 3151 3151 3151 3151 3151 3151 3151 3151 3151 3151 3150 3150 3149 3149 3148 3147 3147 3146 3145 3143 3142 3140 3138 3137 3135 3133 3132 3130 3128 3126 3124 3122 3120 3118 3116 3115 3113
3147 3148 3148 3148 3149 3149 3149 3149 3150 3150 3150 3150 3150 3150 3149 3149 3148 3148 3147 3146 3146 3145 3144 3143 3141 3140 3138 3137 3135 3134 3132 3130 3128 3126 3124 3123 3121 3119 3117 3115 3113 3111
3145 3146 3146 3146 3147 3147 3147 3148 3148 3148 3148 3148 3148 3148 3148 3147 3146 3146 3145 3144 3144 3143 3142 3141 3140 3138 3137 3135 3134 3132 3130 3129 3127 3125 3123 3121 3119 3117 3115 3113 3111 3109
3144 3144 3144 3145 3145 3145 3146 3146 3147 3147 3147 3147 3147 3146 3146 3145 3145 3144 3143 3143 3142 3141 3140 3139 3138 3137 3135 3134 3132 3131 3129 3127 3125 3123 3121 3119 3117 3115 3113 3111 3109 3106
3142 3142 3143 3143 3144 3144 3145 3145 3145 3145 3145 3145 3145 3144 3144 3143 3143 3142 3142 3141 3141 3140 3139 3138 3137 3135 3134 3132 3131 3129 3128 3126 3124 3122 3120 3118 3115 3113 3111 3108 3106 3104
3141 3141 3141 3142 3143 3143 3144 3144 3144 3144 3144 3143 3143 3143 3142 3142 3141 3141 3140 3140 3139 3138 3138 3137 3135 3134 3133 3131 3129 3128 3126 3124 3122 3120 3118 3116 3114 3111 3109 3106 3104 3102
3139 3140 3140 3141 3142 3142 3142 3143 3143 3143 3142 3142 3142 3141 3141 3141 3140 3140 3139 3139 3138 3137 3136 3135 3134 3133 3131 3130 3128 3126 3125 3123 3121 3119 3117 3114 3112 3110 3107 3104 3102 3099
3138 3139 3139 3140 3140 3141 3141 3141 3141 3141 3141 3140 3140 3140 3139 3139 3139 3139 3138 3138 3137 3136 3135 3134 3133 3131 3130 3128 3127 3125 3123 3122 3120 3117 3115 3113 3110 3108 3105 3102 3100 3097
3137 3138 3139 3139 3140 3140 3140 3140 3140 3139 3139 3139 3139 3139 3138 3138 3138 3138 3137 3137 3136 3135 3134 3132 3131 3130 3129 3127 3126 3124 3122 3120 3118 3116 3113 3111 3108 3105 3103 3100 3097 3094
3136 3137 3138 3138 3138 3139 3139 3138 3138 3138 3138 3138 3138 3138 3137 3137 3137 3137 3136 3136 3135 3134 3132 3131 3130 3128 3127 3125 3124 3122 3120 3118 3116 3113 3111 3108 3106 3103 3100 3098 3095 3092
3135 3136 3136 3137 3137 3137 3137 3137 3137 3137 3137 3137 3137 3137 3137 3136 3136 3136 3135 3134 3134 3133 3131 3130 3129 3127 3125 3124 3122 3120 3118 3116 3114 3111 3109 3106 3103 3101 3098 3095 3092 3090
3134 3134 3135 3135 3135 3136 3136 3136 3136 3136 3136 3136 3136 3136 3136 3136 3135 3135 3134 3133 3132 3131 3130 3129 3127 3126 3124 3122 3120 3118 3116 3113 3111 3109 3107 3104 3102 3099 3096 3093 3090 3087
3132 3133 3134 3134 3134 3134 3135 3135 3135 3135 3136 3136 3135 3135 3135 3135 3134 3134 3133 3132 3130 3129 3128 3127 3126 3124 3122 3120 3118 3116 3114 3112 3109 3107 3104 3102 3100 3097 3095 3092 3089 3086
3131 3132 3133 3133 3133 3134 3134 3134 3134 3134 3135 3134 3134 3134 3134 3134 3133 3132 3131 3130 3129 3128 3127 3125 3124 3122 3120 3118 3117 3114 3112 3110 3107 3105 3103 3100 3098 3096 3093 3091 3087 3084
3130 3131 3132 3132 3133 3133 3133 3133 3133 3133 3133 3133 3133 3133 3133 3133 3132 3131 3130 3129 3128 3127 3125 3124 3122 3120 3118 3116 3115 3112 3110 3108 3105 3103 3101 3099 3096 3093 3091 3088 3085 3081
3129 3130 3130 3131 3132 3133 3133 3133 3133 3133 3133 3133 3133 3132 3132 3131 3131 3130 3129 3128 3127 3126 3124 3123 3121 3119 3117 3115 3113 3111 3109 3107 3105 3102 3100 3097 3094 3091 3088 3085 3082 3078
3128 3129 3129 3130 3130 3131 3132 3132 3132 3132 3132 3132 3132 3131 3131 3130 3130 3129 3128 3127 3126 3125 3123 3122 3120 3117 3116 3114 3111 3110 3108 3106 3104 3101 3098 3095 3092 3089 3086 3083 3079 3076
3127 3127 3128 3129 3129 3130 3131 3132 3131 3131 3131 3131 3131 3130 3130 3129 3129 3128 3127 3126 3125 3124 3122 3120 3119 3116 3114 3113 3111 3109 3106 3104 3102 3099 3097 3094 3091 3087 3084 3081 3077 3073
3126 3126 3127 3127 3128 3130 3130 3130 3130 3130 3130 3130 3130 3129 3129 3129 3128 3127 3126 3125 3124 3123 3121 3119 3117 3116 3114 3112 3110 3107 3105 3103 3100 3098 3095 3092 3089 3086 3082 3079 3075 3072
3124 3125 3126 3127 3128 3129 3129 3129 3129 3129 3129 3129 3129 3129 3128 3128 3127 3126 3125 3124 3123 3121 3120 3118 3116 3115 3113 3111 3109 3106 3104 3102 3099 3097 3094 3091 3088 3085 3081 3077 3074 3071
3123 3124 3125 3126 3127 3128 3128 3128 3128 3128 3128 3128 3128 3128 3128 3127 3126 3125 3124 3123 3122 3120 3119 3117 3115 3114 3112 3110 3108 3105 3103 3101 3098 3096 3093 3090 3087 3084 3080 3076 3072 3069
3122 3123 3124 3125 3126 3127 3127 3127 3127 3127 3128 3128 3127 3127 3127 3126 3125 3124 3123 3122 3120 3119 3117 3116 3114 3112 3111 3109 3106 3104 3102 3100 3097 3095 3092 3089 3086 3083 3079 3075 3071 3067
3121 3122 3123 3124 3125 3126 3126 3126 3127 3127 3127 3127 3127 3126 3126 3125 3124 3123 3122 3121 3119 3118 3116 3114 3113 3111 3109 3107 3105 3103 3101 3098 3096 3094 3091 3088 3085 3081 3078 3074 3070 3066